This is the latest recevied weather packets stored in our database for station/object K1AWR. If no packets are shown the sender has not sent any weather packets the latest 10 day(s).
| Time | Temp. | Humidity | Pressure | Rain* | Wind** | Luminosity | Snow |
|---|---|---|---|---|---|---|---|
| 1778141911 | 9.44° C | 91% | 1009.3 hPa | 0 mm | - | 0 W/m² | - |
| 1778141607 | 9.44° C | 91% | 1009.3 hPa | 0 mm | - | 0 W/m² | - |
| 1778141304 | 9.44° C | 91% | 1009.7 hPa | 0 mm | - | 0 W/m² | - |
| 1778141000 | 9.44° C | 91% | 1009.7 hPa | 1.27 mm | - | 0 W/m² | - |
| 1778140695 | 9.44° C | 91% | 1009.5 hPa | 1.27 mm | - | 0 W/m² | - |
| 1778140392 | 10° C | 90% | 1009.6 hPa | 0 mm | - | 0 W/m² | - |
| 1778140089 | 10° C | 90% | 1009.4 hPa | 0 mm | - | 0 W/m² | - |
| 1778139786 | 10° C | 90% | 1009.4 hPa | 0 mm | - | 0 W/m² | - |
| 1778139483 | 10° C | 90% | 1009.4 hPa | 0 mm | - | 0 W/m² | - |
| 1778139180 | 10° C | 90% | 1009 hPa | 0 mm | - | 0 W/m² | - |
| 1778138877 | 10° C | 90% | 1009.4 hPa | 0 mm | - | 0 W/m² | - |
| 1778138575 | 10° C | 90% | 1009 hPa | 0 mm | - | 0 W/m² | - |
| 1778138272 | 10° C | 90% | 1009 hPa | 0 mm | - | 0 W/m² | - |
| 1778137968 | 10° C | 90% | 1009 hPa | 0 mm | - | 0 W/m² | - |
| 1778137665 | 10° C | 89% | 1008.8 hPa | 0 mm | - | 0 W/m² | - |
| 1778137362 | 10° C | 89% | 1008.6 hPa | 0 mm | - | 0 W/m² | - |
| 1778137059 | 10° C | 89% | 1009 hPa | 1.78 mm | - | 0 W/m² | - |
| 1778136756 | 10° C | 89% | 1008.8 hPa | 3.05 mm | - | 0 W/m² | - |
| 1778136453 | 10.56° C | 88% | 1008.9 hPa | 3.05 mm | - | 0 W/m² | - |
| 1778136152 | 10.56° C | 87% | 1009 hPa | 1.78 mm | - | 0 W/m² | - |
| 1778135848 | 10.56° C | 85% | 1008.6 hPa | 0 mm | - | 0 W/m² | - |
| 1778135545 | 10.56° C | 84% | 1008.7 hPa | 0 mm | - | 0 W/m² | - |
| 1778135242 | 10.56° C | 85% | 1008.4 hPa | 0 mm | - | 0 W/m² | - |
| 1778134940 | 10.56° C | 85% | 1008.4 hPa | 0 mm | - | 0 W/m² | - |
| 1778134638 | 10.56° C | 86% | 1008.2 hPa | 0 mm | - | 0 W/m² | - |
* Rain latest hour (hover to see other rain measurements)
** Current wind speed in m/s (hover to see current wind gust speed)